| time (UTC) | temp F | wind direction | speed MPH | gust MPH | rain 1hr in | rain 24hr in | rain mn in | humidity % | barometer mb |
| 20260506044537 | 75 | 146 | 1.0 | 7.0 | 0.00 | 0.00 | 0.00 | 90 | 1009.0 |
| 20260506043035 | 75 | 214 | 1.0 | 7.0 | 0.00 | 0.00 | 0.00 | 89 | 1009.1 |
| 20260506041535 | 75 | 184 | 1.0 | 6.0 | 0.00 | 0.00 | 0.00 | 89 | 1009.0 |
| 20260506040034 | 76 | 221 | 2.0 | 7.0 | 0.00 | 0.00 | 0.00 | 88 | 1008.8 |
| 20260506034534 | 76 | 44 | 1.0 | 7.0 | 0.00 | 0.00 | 0.00 | 88 | 1008.6 |
| 20260506033034 | 76 | 117 | 0.0 | 6.0 | 0.00 | 0.00 | 0.00 | 88 | 1008.6 |
| 20260506031533 | 76 | 107 | 1.0 | 6.0 | 0.00 | 0.00 | 0.00 | 87 | 1008.5 |
| 20260506030034 | 77 | 158 | 0.0 | 7.0 | 0.00 | 0.00 | 0.00 | 86 | 1008.1 |
| 20260506024531 | 77 | 174 | 1.0 | 9.0 | 0.00 | 0.00 | 0.00 | 85 | 1008.0 |
| 20260506023031 | 77 | 118 | 1.0 | 6.0 | 0.00 | 0.00 | 0.00 | 84 | 1007.7 |
| 20260506021530 | 78 | 134 | 0.0 | 4.0 | 0.00 | 0.00 | 0.00 | 83 | 1007.4 |
| 20260506020100 | 78 | 125 | 0.0 | 7.0 | 0.00 | 0.00 | 0.00 | 83 | 1007.0 |
| 20260506014529 | 78 | 109 | 1.0 | 4.0 | 0.00 | 0.00 | 0.00 | 82 | 1007.0 |
| 20260506013029 | 79 | 209 | 0.0 | 3.0 | 0.00 | 0.00 | 0.00 | 81 | 1007.0 |
| 20260506011528 | 79 | 130 | 0.0 | 3.0 | 0.00 | 0.00 | 0.00 | 80 | 1007.0 |
| 20260506010030 | 80 | 149 | 0.0 | 3.0 | 0.00 | 0.00 | 0.00 | 79 | 1007.0 |
| 20260506004526 | 80 | 119 | 0.0 | 3.0 | 0.00 | 0.00 | 0.00 | 79 | 1007.0 |
| 20260506003026 | 81 | 155 | 0.0 | 4.0 | 0.00 | 0.00 | 0.00 | 78 | 1007.0 |
| 20260506001525 | 81 | 182 | 0.0 | 2.0 | 0.00 | 0.00 | 0.00 | 77 | 1007.1 |
| 20260506000041 | 81 | 182 | 0.0 | 8.0 | 0.00 | 0.00 | 0.00 | 77 | 1006.9 |
| 20260505234524 | 81 | 165 | 1.0 | 5.0 | 0.00 | 0.00 | 0.00 | 75 | 1006.7 |
| 20260505233022 | 82 | 217 | 0.0 | 8.0 | 0.00 | 0.00 | 0.00 | 75 | 1006.6 |
| 20260505231528 | 82 | 175 | 2.0 | 8.0 | 0.00 | 0.00 | 0.00 | 75 | 1006.5 |
| 20260505230034 | 83 | 136 | 1.0 | 5.0 | 0.00 | 0.00 | 0.00 | 75 | 1006.5 |
| 20260505224522 | 83 | 250 | 1.0 | 7.0 | 0.00 | 0.00 | 0.00 | 74 | 1006.5 |
| 20260505223021 | 83 | 203 | 1.0 | 4.0 | 0.00 | 0.00 | 0.00 | 75 | 1006.3 |
| 20260505221519 | 83 | 216 | 3.0 | 6.0 | 0.00 | 0.00 | 0.00 | 73 | 1006.3 |
| 20260505220018 | 83 | 190 | 1.0 | 10.0 | 0.00 | 0.00 | 0.00 | 73 | 1006.5 |
| 20260505214516 | 83 | 174 | 2.0 | 11.0 | 0.00 | 0.00 | 0.00 | 72 | 1006.8 |
| 20260505213016 | 83 | 234 | 2.0 | 9.0 | 0.00 | 0.00 | 0.00 | 73 | 1006.9 |
| 20260505211518 | 84 | 185 | 1.0 | 8.0 | 0.00 | 0.00 | 0.00 | 73 | 1007.1 |
| 20260505210010 | 84 | 234 | 3.0 | 12.0 | 0.00 | 0.00 | 0.00 | 73 | 1007.2 |
| 20260505204508 | 84 | 240 | 2.0 | 8.0 | 0.00 | 0.00 | 0.00 | 74 | 1007.2 |
| 20260505203013 | 83 | 211 | 1.0 | 13.0 | 0.00 | 0.00 | 0.00 | 74 | 1007.6 |
| 20260505201505 | 83 | 175 | 3.0 | 10.0 | 0.00 | 0.00 | 0.00 | 75 | 1007.8 |
| 20260505200001 | 82 | 221 | 2.0 | 12.0 | 0.00 | 0.00 | 0.00 | 76 | 1008.1 |
| 20260505194600 | 82 | 171 | 1.0 | 6.0 | 0.00 | 0.00 | 0.00 | 76 | 1008.4 |
| 20260505193100 | 82 | 186 | 3.0 | 7.0 | 0.00 | 0.00 | 0.00 | 77 | 1008.5 |
| 20260505191603 | 82 | 175 | 0.0 | 5.0 | 0.00 | 0.00 | 0.00 | 78 | 1008.6 |
| 20260505190055 | 80 | 269 | 0.0 | 8.0 | 0.00 | 0.00 | 0.00 | 79 | 1008.6 |
| 20260505184549 | 79 | 219 | 1.0 | 7.0 | 0.00 | 0.00 | 0.00 | 80 | 1008.8 |
| 20260505183047 | 78 | 220 | 1.0 | 9.0 | 0.00 | 0.00 | 0.00 | 81 | 1009.1 |
| 20260505181605 | 77 | 211 | 1.0 | 5.0 | 0.00 | 0.00 | 0.00 | 82 | 1009.3 |
| 20260505180047 | 76 | 209 | 3.0 | 9.0 | 0.00 | 0.00 | 0.00 | 83 | 1009.2 |
| 20260505174539 | 75 | 266 | 3.0 | 8.0 | 0.00 | 0.00 | 0.00 | 84 | 1009.6 |
| 20260505173033 | 74 | 240 | 0.0 | 8.0 | 0.00 | 0.00 | 0.00 | 86 | 1009.8 |
| 20260505171537 | 74 | 232 | 0.0 | 7.0 | 0.00 | 0.00 | 0.00 | 87 | 1009.8 |
| 20260505170028 | 73 | 223 | 1.0 | 6.0 | 0.00 | 0.00 | 0.00 | 88 | 1009.9 |
| 20260505164523 | 72 | 211 | 0.0 | 5.0 | 0.00 | 0.00 | 0.00 | 89 | 1009.9 |
| 20260505163019 | 72 | 215 | 1.0 | 6.0 | 0.00 | 0.00 | 0.00 | 90 | 1010.0 |
| 20260505161516 | 71 | 205 | 0.0 | 6.0 | 0.00 | 0.00 | 0.00 | 91 | 1010.0 |
| 20260505160115 | 71 | 234 | 2.0 | 5.0 | 0.00 | 0.00 | 0.00 | 91 | 1010.0 |
| 20260505153025 | 70 | 218 | 1.0 | 10.0 | 0.00 | 0.00 | 0.00 | 92 | 1010.2 |
| 20260505151510 | 70 | 199 | 2.0 | 8.0 | 0.00 | 0.00 | 0.00 | 92 | 1010.0 |
| 20260505124507 | 69 | 149 | 1.0 | 9.0 | 0.00 | 0.00 | 0.00 | 92 | 1008.7 |
| 20260505123004 | 69 | 183 | 1.0 | 6.0 | 0.00 | 0.00 | 0.00 | 92 | 1008.6 |
| 20260505121503 | 69 | 188 | 1.0 | 9.0 | 0.00 | 0.00 | 0.00 | 92 | 1008.3 |
| 20260505120003 | 69 | 172 | 1.0 | 7.0 | 0.00 | 0.00 | 0.00 | 92 | 1008.2 |
| 20260505114503 | 68 | 169 | 1.0 | 5.0 | 0.00 | 0.00 | 0.00 | 92 | 1008.1 |
| 20260505113002 | 68 | 205 | 0.0 | 7.0 | 0.00 | 0.00 | 0.00 | 92 | 1008.2 |
| 20260505111503 | 68 | 167 | 2.0 | 8.0 | 0.00 | 0.00 | 0.00 | 91 | 1008.1 |
| 20260505110116 | 69 | 196 | 1.0 | 10.0 | 0.00 | 0.00 | 0.00 | 91 | 1008.5 |
| 20260505101603 | 69 | 200 | 2.0 | 9.0 | 0.00 | 0.00 | 0.00 | 90 | 1008.5 |
| 20260505100057 | 69 | 167 | 1.0 | 8.0 | 0.00 | 0.00 | 0.00 | 90 | 1008.5 |
| 20260505094556 | 69 | 175 | 1.0 | 7.0 | 0.00 | 0.00 | 0.00 | 90 | 1008.3 |
| 20260505093055 | 69 | 219 | 1.0 | 11.0 | 0.00 | 0.00 | 0.00 | 90 | 1008.6 |
| 20260505091557 | 69 | 201 | 1.0 | 7.0 | 0.00 | 0.00 | 0.00 | 90 | 1008.4 |
| 20260505090056 | 69 | 198 | 1.0 | 8.0 | 0.00 | 0.00 | 0.00 | 90 | 1008.7 |
| 20260505084601 | 69 | 218 | 2.0 | 8.0 | 0.00 | 0.00 | 0.00 | 90 | 1008.6 |
| 20260505083105 | 69 | 168 | 2.0 | 9.0 | 0.00 | 0.00 | 0.00 | 90 | 1008.8 |
| 20260505081549 | 69 | 244 | 3.0 | 10.0 | 0.00 | 0.00 | 0.00 | 89 | 1009.0 |
| 20260505080049 | 69 | 223 | 2.0 | 14.0 | 0.00 | 0.00 | 0.00 | 89 | 1009.2 |
| 20260505074546 | 69 | 184 | 2.0 | 11.0 | 0.00 | 0.00 | 0.00 | 89 | 1009.5 |
| 20260505073049 | 69 | 208 | 2.0 | 12.0 | 0.00 | 0.00 | 0.00 | 89 | 1009.5 |
| 20260505071542 | 69 | 201 | 2.0 | 10.0 | 0.00 | 0.00 | 0.00 | 88 | 1009.8 |
| 20260505070042 | 69 | 157 | 2.0 | 9.0 | 0.00 | 0.00 | 0.00 | 88 | 1009.9 |
| 20260505064558 | 69 | 215 | 2.0 | 9.0 | 0.00 | 0.00 | 0.00 | 88 | 1010.0 |
| 20260505063037 | 69 | 230 | 1.0 | 11.0 | 0.00 | 0.00 | 0.00 | 88 | 1010.3 |
| 20260505061536 | 69 | 221 | 3.0 | 9.0 | 0.00 | 0.00 | 0.00 | 88 | 1010.5 |
| 20260505060035 | 70 | 119 | 2.0 | 12.0 | 0.00 | 0.00 | 0.00 | 87 | 1010.5 |